Wind_Speed
34 35 35 32 30 30 31 32 34 34 32 30 29 26 24 22 20 19 17 16 15 13 12 12 12 10 10 12 14 15 11 11
35 33 33 34 32 27 26 29 34 34 32 30 27 23 20 18 16 15 15 14 12 11 11 11 10 8 8 11 13 15 9 9
36 37 40 44 34 31 26 27 31 33 30 27 24 22 19 16 14 13 12 10 10 9 8 8 9 8 10 12 13 8 8 8
33 38 40 40 40 32 27 28 30 31 29 25 22 21 16 14 14 11 9 8 8 6 5 6 7 6 10 10 8 9 8 8
38 41 39 35 32 30 27 26 28 25 22 25 20 19 17 13 12 11 8 6 5 3 3 4 5 5 8 7 8 8 6 6
39 39 38 39 39 40 32 27 24 23 25 24 21 18 16 13 12 10 9 8 4 2 1 4 6 7 8 10 11 8 6 6
43 41 42 45 35 36 35 27 19 20 24 17 16 16 14 13 10 10 10 7 4 2 2 3 3 7 9 10 12 11 8 6
35 36 35 33 31 27 24 23 18 18 16 19 16 15 14 11 11 11 9 7 5 3 3 2 3 5 8 9 9 8 8 5
31 23 24 34 24 17 18 17 17 17 17 19 16 14 12 10 11 11 9 9 7 4 3 5 4 5 6 7 8 7 7 5
24 23 25 25 20 16 16 17 18 16 20 17 15 15 13 11 11 13 13 11 6 5 2 2 1 2 3 3 4 5 7 6
23 22 20 20 19 17 18 19 18 17 19 18 16 15 13 14 14 15 12 12 10 6 5 3 1 1 2 4 5 3 3 3
22 22 20 18 15 16 16 19 19 19 20 19 18 15 15 16 16 16 16 13 10 8 7 5 2 2 4 5 4 5 5 5
23 23 21 19 18 19 19 21 19 21 20 22 21 18 16 18 19 19 17 12 11 10 8 6 4 3 3 7 8 8 7 7
24 24 22 22 20 20 20 20 20 21 26 24 23 22 21 21 22 20 19 16 14 13 9 6 5 5 4 9 11 12 8 9
25 24 22 22 22 21 19 20 24 26 28 27 25 24 24 24 24 24 23 20 17 15 12 10 6 7 13 12 9 10 8 10
26 26 25 24 24 23 24 24 21 26 31 26 27 24 25 26 26 27 25 24 21 18 16 11 10 14 17 11 12 11 9 10
27 27 26 26 27 28 25 25 21 19 26 23 27 26 27 29 29 29 28 26 22 20 14 12 14 14 10 10 10 9 9 11
28 29 28 28 29 32 32 27 24 26 29 29 30 31 30 31 31 31 30 26 23 18 15 13 13 15 8 10 11 10 11 12
29 30 31 30 32 35 37 36 35 34 35 34 32 32 33 34 33 33 31 27 25 20 14 22 17 10 10 10 10 10 11 11
31 32 32 30 33 36 36 36 36 35 36 37 35 34 35 34 35 25 32 30 22 16 23 20 13 10 12 13 11 10 11 11
Wind_Direction
167 166 161 160 153 156 159 159 158 154 150 144 141 140 138 137 134 128 125 123 119 107 100 84 69 60 53 38 31 39 54 55
175 173 169 160 144 153 154 162 158 154 151 147 143 144 142 139 139 134 129 128 125 109 93 73 56 57 42 26 24 38 46 45
175 172 156 147 144 151 159 161 159 155 154 150 149 148 146 136 150 142 134 130 123 101 77 56 47 40 24 14 33 32 31 34
171 157 149 146 149 151 164 156 156 157 156 160 164 155 143 148 155 150 136 133 119 93 64 51 59 51 13 14 19 22 22 27
157 155 153 149 155 158 142 146 145 149 163 180 175 168 163 160 162 161 152 140 129 112 85 65 5 1 349 2 12 26 23 27
153 144 150 156 153 151 149 140 146 169 183 181 180 177 177 172 178 171 170 166 161 158 21 350 336 343 346 352 356 20 18 30
150 157 164 156 165 158 157 169 171 180 184 182 184 186 185 186 183 180 181 172 180 205 308 322 342 357 353 348 347 351 8 18
160 162 164 155 161 162 173 180 189 181 184 190 188 188 188 189 193 190 187 191 195 204 157 143 348 348 345 341 342 343 338 354
155 164 160 162 172 188 192 191 186 185 187 190 192 193 193 193 197 199 210 216 203 224 281 318 334 342 345 349 344 334 324 319
168 171 176 183 187 191 191 193 187 190 200 200 202 201 199 208 213 216 216 206 200 224 247 291 334 2 338 345 337 324 315 326
179 184 190 190 194 193 195 195 192 198 204 207 208 207 214 216 216 220 217 217 218 222 251 254 303 263 279 322 319 260 298 282
189 194 197 200 199 200 199 200 203 208 214 213 212 220 223 222 223 228 222 218 223 223 257 265 224 243 267 270 267 275 260 241
201 203 207 205 204 201 200 202 205 214 214 218 220 225 232 228 233 229 223 213 213 243 253 261 270 287 278 297 287 278 253 245
205 207 206 209 209 206 205 206 214 217 223 223 226 231 236 232 233 230 222 220 234 243 249 235 221 309 308 305 308 282 255 250
209 212 211 211 208 207 210 209 220 224 225 228 228 232 240 237 231 228 230 234 241 248 248 229 219 292 320 295 306 287 289 251
215 216 215 216 211 212 214 218 222 232 235 234 230 237 240 233 229 231 236 240 244 244 236 225 278 307 308 277 270 265 276 277
216 217 218 217 217 218 222 223 228 231 246 230 232 239 237 230 231 233 235 237 239 240 230 246 294 301 282 263 262 266 263 264
216 216 220 219 222 230 230 230 227 228 237 239 241 239 235 234 236 236 235 236 240 235 233 284 288 290 276 248 248 259 269 266
214 217 220 221 224 231 234 235 235 245 248 249 248 243 237 238 233 236 235 239 244 234 257 287 272 258 261 251 251 251 256 261
218 222 221 221 228 235 235 238 242 245 249 250 248 255 250 245 240 256 240 240 234 235 284 267 255 244 256 255 251 248 251 259
Height
1522 1527 1533 1539 1543 1545 1551 1554 1558 1564 1566 1568 1570 1574 1577 1581 1583 1584 1586 1587 1587 1588 1589 1589 1590 1590 1589 1589 1589 1588 1591 1590
1523 1529 1534 1541 1544 1550 1555 1556 1560 1563 1569 1571 1573 1576 1580 1582 1585 1586 1588 1589 1589 1590 1589 1589 1591 1591 1591 1590 1588 1589 1592 1591
1522 1527 1530 1536 1545 1552 1556 1560 1563 1565 1571 1573 1575 1579 1581 1585 1586 1588 1589 1590 1589 1591 1591 1592 1592 1592 1590 1590 1590 1591 1592 1592
1525 1526 1528 1532 1538 1549 1559 1561 1563 1567 1571 1574 1577 1580 1583 1586 1586 1588 1589 1591 1591 1591 1591 1591 1592 1592 1591 1590 1592 1591 1592 1592
1525 1530 1534 1540 1550 1555 1558 1562 1564 1567 1571 1576 1579 1580 1582 1585 1587 1589 1590 1591 1591 1591 1591 1591 1592 1592 1591 1590 1592 1591 1591 1591
1529 1534 1538 1543 1545 1552 1560 1562 1566 1570 1572 1576 1578 1580 1582 1584 1587 1588 1590 1590 1591 1591 1591 1590 1590 1590 1590 1589 1589 1590 1590 1589
1534 1537 1541 1549 1555 1561 1566 1568 1570 1572 1574 1577 1579 1580 1582 1584 1587 1588 1590 1590 1590 1590 1589 1589 1588 1587 1588 1589 1587 1586 1586 1588
1537 1544 1550 1555 1560 1563 1565 1567 1570 1572 1575 1576 1578 1580 1582 1583 1586 1587 1589 1589 1588 1589 1589 1589 1587 1586 1585 1587 1586 1585 1585 1585
1542 1548 1553 1556 1560 1563 1565 1567 1569 1571 1574 1575 1577 1580 1581 1583 1585 1586 1587 1587 1585 1587 1587 1586 1586 1585 1584 1583 1584 1584 1584 1583
1545 1549 1553 1556 1559 1561 1564 1566 1568 1571 1572 1575 1576 1578 1580 1581 1582 1584 1584 1583 1582 1585 1584 1586 1585 1584 1583 1583 1582 1582 1582 1579
1547 1551 1553 1555 1557 1559 1562 1565 1567 1569 1571 1573 1575 1577 1578 1580 1580 1581 1581 1581 1580 1581 1581 1585 1582 1583 1583 1579 1578 1579 1577 1577
1546 1549 1552 1554 1557 1559 1562 1563 1566 1566 1568 1571 1573 1574 1576 1578 1577 1578 1579 1578 1578 1579 1578 1581 1582 1582 1582 1579 1577 1576 1575 1575
1544 1546 1549 1552 1555 1556 1557 1561 1563 1565 1566 1568 1570 1571 1572 1573 1573 1576 1577 1577 1577 1576 1577 1578 1578 1579 1580 1579 1575 1571 1570 1571
1540 1542 1546 1549 1552 1554 1557 1559 1562 1562 1563 1564 1566 1567 1569 1569 1570 1571 1574 1574 1572 1574 1575 1576 1577 1577 1579 1578 1574 1572 1567 1567
1536 1540 1543 1545 1548 1551 1553 1555 1555 1557 1559 1559 1562 1564 1565 1565 1566 1568 1569 1570 1569 1571 1571 1571 1574 1573 1573 1574 1569 1568 1566 1564
1533 1537 1539 1542 1545 1548 1547 1551 1553 1553 1554 1556 1559 1559 1559 1560 1561 1563 1564 1565 1566 1567 1567 1568 1569 1567 1566 1567 1566 1565 1565 1563
1527 1531 1535 1537 1538 1541 1543 1546 1549 1551 1549 1552 1553 1553 1554 1555 1556 1558 1559 1560 1561 1562 1564 1566 1564 1563 1562 1563 1563 1561 1560 1560
1521 1524 1528 1530 1532 1534 1537 1540 1543 1543 1544 1545 1547 1548 1549 1550 1551 1552 1553 1555 1556 1558 1560 1560 1560 1558 1557 1557 1558 1558 1557 1556
1514 1516 1520 1523 1525 1527 1530 1533 1536 1537 1539 1540 1541 1542 1544 1545 1546 1546 1548 1548 1550 1553 1555 1554 1555 1553 1553 1555 1552 1551 1552 1551
1506 1509 1512 1516 1518 1520 1524 1528 1530 1531 1533 1534 1535 1537 1537 1539 1540 1542 1544 1544 1546 1549 1549 1549 1550 1550 1550 1549 1549 1547 1546 1546